Find Kosmos-1235

NORAD ID: 12114 Int'l Des: 1980-102 Owner: GUKOSR Country: SU operational
LEOCIRCULAR

Current View

Loading 3D Globe...

About Kosmos-1235

Kosmos-1235 (NORAD 12114) is a satellite launched Dec 23, 1980 by GUKOSR of SU. It operates in LEO, CIRCULAR orbit with a mass of 60.00 kg.

Upcoming Passes

Passes for default location (London). Set your location on the main map for personalized predictions.

Altitude History

Loading altitude history...

Two-Line Element Set

1 12114U 80102H 26194.48901647 -.00000021 00000-0 -31774-4 0 9992
2 12114 73.9956 351.8718 0032188 59.0754 358.4558 12.56235108 88899
Epoch: Jul 13, 2026 • Age: 12 hours

Current Status

Altitude 1473.4 km
Apogee / Perigee N/A
Velocity 7.12 km/s
Sub-Earth Point -33.00°S, 110.53°W
Launch Date Dec 23, 1980
Age 45.5 years
Type other

Technical Details

Classification Payload
Mass 60.00 kg
Dry Mass 60.00 kg
Total Mass 60.00 kg
Length 0.80 m
Diameter 0.80 m
Span 0.80 m
Shape Poly
Manufacturer NPOPM
Bus Type Strela-1 11F625
Phase Status In Orbit
Owner/State GUKOSR/SU

Most Searched